STARLINK-5673, 55462

Orbit data source: Space-Track

STARLINK-5673, 55462 is a payload satellite owned by SpaceX/Seattle (US) in LEO that was launched on Thu, 02 Feb 2023 UTC via an FALCON 9 launch vehicle from the Air Force Eastern Test Range (AFETR). Payload-class satellites include a variety of spacecraft equipped with specific instruments for various scientific and technological missions. These include communications satellites like Starlink; space stations such as the ISS; scientific satellites like the Hubble; Earth observation satellites from companies like Planet Labs, Umbra, and HawkEye 360; GPS; miniature CubeSats for education and research; and military/defense satellites.

Loading next visibility...
Identifier
55462, 2023-015P
Orbit
LEO
Country
Flag of USUS
Related business
Manufacturer
SpaceX/Seattle
Mission
Operational Commercial Communications
Bus & Motor
STARLINK, Unknown motor
Mass
305 kg wet, ~290 kg dry
Launch date (UTC)
2023-02-02 (3 years ago)
Launch vehicle
FALCON 9
Launch site
Air Force Eastern Test Range (AFETR)
Object type
Payload
Rocket body
Debris
Shape & HBR
Box + 1 Pan, 10.1 m
Radar Cross Section
13.562 m², Large (>1 m²)

Expand to show TLE details & history
Last TLE update: 15 hours ago

TLE from 15 hours ago
0 STARLINK-5673
1 55462U 23015P   25302.32296801 -.00000326  00000-0 -90607-5 0  9996
2 55462  43.0053 319.7486 0001051 265.4397  94.6326 15.02542025150990
Epoch: 2025-10-29T07:45Z
TLE epoch observation values (Epoch: 2025-10-29T07:45:04.436Z)
Latitude
0.00005°
Longitude
165.58241°
Altitude
558.898 km
Speed
7.584 km/s
True Right ascension
21h 18m 59s
True Declination
0° 00' 00"
Sunlit
Object was in daylight at epoch
Visualization orbit readout
Latitude
Unknown
Longitude
Unknown
Altitude
Unknown
Speed
Unknown
Apparent Right ascension
Unknown
Apparent Declination
Unknown
Sunlit
N/A
Visualization observer readout
Local Sidereal Time
18:43:29
Azimuth
Unknown
Elevation
Unknown
Doppler factor
Unknown
Orbital elements
Apogee altitude
561.713 km
Perigee altitude
560.255 km
Semi-major axis
6,939.121 km
Eccentricity
0.00011
Inclination
43.0053°
RAAN
319.7486°
Arg. of periapsis
265.4397°
True anomaly
94.6446°
Mean anomaly
94.6326°
Eccentric anomaly
94.6386°
Mean motion
3.7548 °/min
Orbital period
95.88 mins
BSTAR
-0.0000090607
Loading maneuver chart data...
Computing Atmospheric mass density...
Loading historical data...
Loading historical data...
Loading historical data...
Loading historical data...
Loading historical data...
Loading historical data...
Loading historical data...

Documentation

Showing up to 5 results
|